User: anonymous   Login
Location: Unspecified
(0.0000°N, 0.0000°E)
Time: 17:36:59
(UTC+00:00)
Language:

PERSEUS M1 - Orbit

View from above orbital plane
View from above orbital plane
View from above satellite
View from above satellite

Ground track
Ground track

The orbit data is extracted from the following two-line orbital elements,

1 40039U 14033AF  18170.80064714  .00000104  00000-0  18184-4 0  9995
2 40039  97.8992  81.7787 0014355 172.1229 188.0215 14.85983057216860
Epoch (UTC): 19 June 2018 19:12:55
Eccentricity: 0.0014355
inclination: 97.8992°
perigee height: 600 km
apogee height: 620 km
right ascension of ascending node: 81.7787°
argument of perigee: 172.1229°
revolutions per day: 14.85983057
mean anomaly at epoch: 188.0215°
orbit number at epoch: 21686

The dashed part of the orbit path shows where the satellite is in the earth's shadow,  

DLR